Flag for U.S.A. Weather past 2 weeks in Newport News, Virginia, U.S.A.

Now
74 °F

Passing clouds.


Feels Like: 74 °F
Forecast: 71 / 80 °F
Wind: No wind

Location: Newport News / Williamsburg International Airport

Current Time: Jun 2, 2015 at 1:49:57 AM

Latest Report: Jun 2, 2015 at 12:54 AM


Visibility: 10 mi

Pressure: 30.03 "Hg

Humidity: 82%

Dew point: 68 °F

Location of Newport NewsLocation

Historic Weather in Newport News — Graph

°F

Newport News temperature yesterday

Maximum temperature yesterday: 94 °F (at 2:54 PM)
Minimum temperature yesterday: 77 °F (at 5:54 AM)
Average temperature yesterday: 85 °F

Past Weeks' High & Low Weather Summary

 TemperatureHumidityPressure
High94 °F (Jun 1, 2:54 PM)85% (May 19, 2:54 AM)30.46 "Hg (May 19, 2:54 AM)
Low54 °F (May 24, 2:54 AM)32% (May 22, 4:54 PM)29.82 "Hg (May 21, 3:54 PM)
Average77 °F61%30.14 "Hg
* Reported May 18 12:54 AM — Jun 2 12:54 AM, Newport News, Weather by CustomWeather, © 2015

Note: Actual official high and low records may vary slightly from our data, if they occured in-between our weather recording intervals... More about our weather records

Advertising

Newport News weather history for previous 24 hours

 ConditionsComfort  
Time TempWeatherWind HumidityBarometerVisibility
12:54 AM
Tue, Jun 2
74 °FPassing clouds.No wind82%30.03 "Hg10 mi
10:54 PM
Mon, Jun 1
78 °FThundershowers. Mostly cloudy.9 mph69%30.06 "Hg10 mi
9:54 PM84 °FClear.13 mph57%29.99 "Hg10 mi
8:54 PM86 °FPassing clouds.14 mph55%29.97 "Hg10 mi
7:54 PM88 °FScattered clouds.9 mph50%29.96 "Hg10 mi
6:54 PM90 °FThunderstorms. Partly sunny.9 mph45%29.95 "Hg10 mi
5:54 PM91 °FBroken clouds.8 mph44%29.95 "Hg10 mi
4:54 PM93 °FPassing clouds.13 mph41%29.94 "Hg10 mi
3:54 PM94 °FBroken clouds.10 mph40%29.97 "Hg10 mi
2:54 PM94 °FPassing clouds.10 mph41%29.99 "Hg10 mi
1:54 PM93 °FSunny.8 mph44%30.02 "Hg10 mi
12:54 PM91 °FSunny.9 mph49%30.04 "Hg10 mi
11:54 AM89 °FSunny.8 mph53%30.05 "Hg10 mi
10:54 AM87 °FSunny.9 mph59%30.06 "Hg10 mi
9:54 AM84 °FPassing clouds.13 mph63%30.06 "Hg10 mi
8:54 AM82 °FLight rain. Sunny.13 mph65%30.07 "Hg10 mi
7:54 AM80 °FScattered clouds.12 mph69%30.07 "Hg10 mi
6:54 AM78 °FSunny.12 mph71%30.07 "Hg10 mi
5:54 AM77 °FMostly cloudy.13 mph74%30.06 "Hg10 mi
4:54 AM78 °FPassing clouds.15 mph71%30.06 "Hg10 mi
3:54 AM78 °FOvercast.12 mph71%30.06 "Hg10 mi
2:54 AM78 °FLight rain. Passing clouds.12 mph71%30.05 "Hg10 mi
1:54 AM79 °FOvercast.12 mph69%30.06 "Hg10 mi
Weather by CustomWeather, © 2015

See weather overviewHow to use our weather pages